When you browse on this site, cookies collect data to enhance your experience and personalize the content and advertising you see.
Visit our Privacy Policy to learn more. By continuing to use the site, you agree to this use of cookies and data.
  • In Sweden
  • List of Countries
  • For 7 days
  • Water Temperature
  • Weather Map
  • Weather Widgets
  • user-avatar
    Login

    Hourly Weather Fleet

    Today, 25 August, Sunday

    Time Temperature Precipitation Wind Pressure Humidity
    00:00 +19°C° 0 mm 1 mps 755 mmHg 70%
    01:00 +18°C° 0 mm 2 mps 755 mmHg 71%
    02:00 +18°C° 0 mm 2 mps 755 mmHg 72%
    03:00 +17°C° 0 mm 2 mps 755 mmHg 73%
    04:00 +18°C° 0 mm 2 mps 755 mmHg 73%
    05:00 +18°C° 0 mm 2 mps 754 mmHg 73%
    06:00 +18°C° 0 mm 2 mps 754 mmHg 74%
    07:00 +20°C° 0 mm 2 mps 755 mmHg 68%
    08:00 +23°C° 0 mm 2 mps 755 mmHg 61%
    09:00 +26°C° 0 mm 3 mps 756 mmHg 55%
    10:00 +27°C° 0 mm 3 mps 756 mmHg 51%
    11:00 +28°C° 0 mm 3 mps 756 mmHg 48%
    12:00 +30°C° 0 mm 3 mps 756 mmHg 44%
    13:00 +29°C° 0 mm 3 mps 756 mmHg 44%
    14:00 +29°C° 0 mm 3 mps 756 mmHg 44%
    15:00 +29°C° 0 mm 4 mps 756 mmHg 45%
    16:00 +28°C° 0 mm 3 mps 756 mmHg 50%
    17:00 +27°C° 0 mm 3 mps 755 mmHg 56%
    18:00 +25°C° 0 mm 2 mps 755 mmHg 61%
    19:00 +24°C° 0 mm 2 mps 756 mmHg 65%
    20:00 +22°C° 0 mm 1 mps 756 mmHg 68%
    21:00 +20°C° 0 mm 1 mps 756 mmHg 72%
    22:00 +20°C° 0 mm 1 mps 756 mmHg 72%
    23:00 +20°C° 0 mm 1 mps 756 mmHg 73%

    Tomorrow, 26 August, Monday

    Time Temperature Precipitation Wind Pressure Humidity
    00:00 +19°C° 0 mm 1 mps 756 mmHg 73%
    01:00 +19°C° 0 mm 1 mps 756 mmHg 74%
    02:00 +16°C° 0 mm 0 mps 756 mmHg 74%
    03:00 +16°C° 0 mm 0 mps 756 mmHg 75%
    04:00 +16°C° 0 mm 0 mps 755 mmHg 75%
    05:00 +17°C° 0 mm 0 mps 755 mmHg 74%
    06:00 +17°C° 0 mm 0 mps 755 mmHg 74%
    07:00 +19°C° 0 mm 0 mps 755 mmHg 68%
    08:00 +21°C° 0 mm 0 mps 755 mmHg 61%
    09:00 +25°C° 0 mm 1 mps 755 mmHg 55%
    10:00 +26°C° 0 mm 1 mps 755 mmHg 52%
    11:00 +27°C° 0 mm 1 mps 755 mmHg 48%
    12:00 +29°C° 0 mm 2 mps 755 mmHg 45%
    13:00 +29°C° 0 mm 2 mps 755 mmHg 44%
    14:00 +29°C° 0 mm 2 mps 755 mmHg 43%
    15:00 +30°C° 0 mm 2 mps 754 mmHg 42%
    16:00 +28°C° 0 mm 2 mps 754 mmHg 48%
    17:00 +27°C° 0 mm 2 mps 754 mmHg 53%
    18:00 +26°C° 0 mm 2 mps 754 mmHg 59%
    19:00 +24°C° 0 mm 2 mps 754 mmHg 64%
    20:00 +23°C° 0 mm 2 mps 754 mmHg 68%
    21:00 +20°C° 0 mm 2 mps 755 mmHg 73%
    22:00 +20°C° 0 mm 2 mps 755 mmHg 74%
    23:00 +19°C° 0 mm 2 mps 755 mmHg 76%

    Day after tomorrow, 27 August, Tuesday

    Time Temperature Precipitation Wind Pressure Humidity
    00:00 +18°C° 0 mm 2 mps 754 mmHg 77%
    01:00 +18°C° 0 mm 2 mps 754 mmHg 79%
    02:00 +18°C° 0 mm 2 mps 754 mmHg 81%
    03:00 +18°C° 0 mm 2 mps 754 mmHg 83%
    04:00 +18°C° 0 mm 2 mps 754 mmHg 82%
    05:00 +18°C° 0 mm 2 mps 754 mmHg 81%
    06:00 +18°C° 0 mm 3 mps 754 mmHg 79%
    07:00 +19°C° 0 mm 3 mps 754 mmHg 75%
    08:00 +20°C° 0 mm 3 mps 755 mmHg 71%
    09:00 +21°C° 0 mm 3 mps 755 mmHg 67%
    10:00 +24°C° 0 mm 2 mps 755 mmHg 64%
    11:00 +25°C° 0 mm 2 mps 755 mmHg 60%
    12:00 +26°C° 0 mm 2 mps 755 mmHg 56%
    13:00 +26°C° 0 mm 2 mps 755 mmHg 55%
    14:00 +27°C° 0 mm 2 mps 754 mmHg 53%
    15:00 +27°C° 0 mm 2 mps 754 mmHg 52%
    16:00 +26°C° 0 mm 2 mps 754 mmHg 57%
    17:00 +25°C° 0 mm 3 mps 754 mmHg 62%
    18:00 +24°C° 0 mm 3 mps 754 mmHg 68%
    19:00 +22°C° 0.1 mm 3 mps 753 mmHg 70%
    20:00 +20°C° 0.1 mm 2 mps 753 mmHg 73%
    21:00 +19°C° 0.1 mm 2 mps 753 mmHg 75%
    22:00 +19°C° 0 mm 2 mps 753 mmHg 77%
    23:00 +19°C° 0 mm 2 mps 753 mmHg 78%

    28 August, Wednesday

    Time Temperature Precipitation Wind Pressure Humidity
    00:00 +19°C° 0 mm 2 mps 752 mmHg 80%
    01:00 +19°C° 0.2 mm 2 mps 752 mmHg 81%
    02:00 +19°C° 0.2 mm 2 mps 751 mmHg 82%
    03:00 +20°C° 0.2 mm 1 mps 751 mmHg 83%
    04:00 +20°C° 0 mm 1 mps 751 mmHg 84%
    05:00 +20°C° 0 mm 1 mps 750 mmHg 85%
    06:00 +19°C° 0 mm 2 mps 750 mmHg 86%
    07:00 +21°C° 0.1 mm 1 mps 750 mmHg 81%
    08:00 +22°C° 0.1 mm 1 mps 750 mmHg 76%
    09:00 +24°C° 0.1 mm 1 mps 750 mmHg 72%
    10:00 +25°C° 0 mm 2 mps 750 mmHg 67%
    11:00 +26°C° 0 mm 2 mps 750 mmHg 63%
    12:00 +27°C° 0 mm 3 mps 750 mmHg 59%
    13:00 +27°C° 0 mm 3 mps 750 mmHg 62%
    14:00 +26°C° 0 mm 3 mps 750 mmHg 65%
    15:00 +25°C° 0 mm 4 mps 750 mmHg 68%
    16:00 +24°C° 0 mm 3 mps 750 mmHg 69%
    17:00 +24°C° 0 mm 3 mps 750 mmHg 71%
    18:00 +22°C° 0 mm 3 mps 750 mmHg 73%
    19:00 +21°C° 0 mm 3 mps 750 mmHg 74%
    20:00 +19°C° 0 mm 3 mps 750 mmHg 75%
    21:00 +18°C° 0 mm 3 mps 750 mmHg 75%
    22:00 +18°C° 0 mm 4 mps 750 mmHg 79%
    23:00 +17°C° 0 mm 4 mps 750 mmHg 83%

    29 August, Thursday

    Time Temperature Precipitation Wind Pressure Humidity
    00:00 +17°C° 0 mm 4 mps 751 mmHg 86%
    01:00 +15°C° 0 mm 4 mps 751 mmHg 88%
    02:00 +14°C° 0 mm 4 mps 751 mmHg 89%
    03:00 +13°C° 0 mm 4 mps 751 mmHg 91%
    04:00 +12°C° 0 mm 4 mps 752 mmHg 90%
    05:00 +12°C° 0 mm 4 mps 752 mmHg 89%
    06:00 +12°C° 0 mm 4 mps 753 mmHg 88%
    07:00 +13°C° 0 mm 4 mps 753 mmHg 79%
    08:00 +15°C° 0 mm 5 mps 754 mmHg 70%
    09:00 +16°C° 0 mm 5 mps 754 mmHg 61%
    10:00 +17°C° 0 mm 5 mps 754 mmHg 57%
    11:00 +19°C° 0 mm 5 mps 755 mmHg 54%
    12:00 +20°C° 0 mm 5 mps 755 mmHg 50%
    13:00 +20°C° 0 mm 5 mps 755 mmHg 53%
    14:00 +19°C° 0 mm 5 mps 755 mmHg 56%
    15:00 +19°C° 0 mm 5 mps 755 mmHg 58%
    16:00 +19°C° 0 mm 4 mps 755 mmHg 61%
    17:00 +18°C° 0 mm 4 mps 756 mmHg 63%
    18:00 +18°C° 0 mm 3 mps 756 mmHg 65%
    19:00 +16°C° 0 mm 3 mps 756 mmHg 71%
    20:00 +14°C° 0 mm 3 mps 757 mmHg 77%
    21:00 +14°C° 0 mm 2 mps 757 mmHg 83%
    22:00 +12°C° 0 mm 3 mps 757 mmHg 85%
    23:00 +12°C° 0 mm 3 mps 757 mmHg 88%

    30 August, Friday

    Time Temperature Precipitation Wind Pressure Humidity
    00:00 +12°C° 0 mm 3 mps 757 mmHg 91%
    01:00 +12°C° 0 mm 3 mps 757 mmHg 92%
    02:00 +12°C° 0 mm 3 mps 757 mmHg 93%
    03:00 +12°C° 0 mm 3 mps 757 mmHg 93%
    04:00 +12°C° 0 mm 3 mps 757 mmHg 94%
    05:00 +12°C° 0 mm 3 mps 757 mmHg 94%
    06:00 +13°C° 0 mm 3 mps 757 mmHg 95%
    07:00 +14°C° 0 mm 4 mps 757 mmHg 87%
    08:00 +17°C° 0 mm 4 mps 758 mmHg 79%
    09:00 +19°C° 0 mm 4 mps 758 mmHg 71%
    10:00 +19°C° 0 mm 4 mps 758 mmHg 69%
    11:00 +20°C° 0 mm 5 mps 758 mmHg 66%
    12:00 +20°C° 0 mm 5 mps 757 mmHg 63%
    13:00 +21°C° 0 mm 5 mps 757 mmHg 63%
    14:00 +21°C° 0 mm 5 mps 757 mmHg 63%
    15:00 +21°C° 0 mm 5 mps 757 mmHg 63%
    16:00 +20°C° 0 mm 5 mps 757 mmHg 66%
    17:00 +19°C° 0 mm 4 mps 756 mmHg 69%
    18:00 +19°C° 0 mm 4 mps 756 mmHg 71%
    19:00 +18°C° 0 mm 4 mps 756 mmHg 75%
    20:00 +17°C° 0 mm 4 mps 756 mmHg 78%
    21:00 +15°C° 0 mm 4 mps 756 mmHg 82%
    22:00 +15°C° 0 mm 4 mps 756 mmHg 83%
    23:00 +14°C° 0 mm 4 mps 755 mmHg 85%
    Show more